TimeEST,TemperatureF,Dew PointF,Humidity,Sea Level PressureIn,VisibilityMPH,Wind Direction,Wind SpeedMPH,Gust SpeedMPH,PrecipitationIn,Events,Conditions,WindDirDegrees,DateUTC
12:15 AM,32.9,27.3,80,29.68,2.5,West,9.2,24.2,N/A,Snow,Light Snow,270,2013-02-28 05:15:00
12:35 AM,32.7,27.3,81,29.67,4.0,WNW,9.2,-,N/A,Snow,Light Snow,290,2013-02-28 05:35:00
12:55 AM,32.4,26.2,78,29.67,4.0,West,11.5,23.0,N/A,Snow,Light Snow,280,2013-02-28 05:55:00
1:15 AM,32.0,25.9,78,29.66,5.0,West,17.3,24.2,N/A,Snow,Light Snow,270,2013-02-28 06:15:00
1:35 AM,32.0,25.7,78,29.66,7.0,West,11.5,20.7,N/A,Snow,Light Snow,280,2013-02-28 06:35:00
2:15 AM,31.6,25.2,77,29.66,5.0,West,11.5,21.9,N/A,Snow,Light Snow,270,2013-02-28 07:15:00
2:35 AM,31.5,24.3,75,29.66,7.0,West,16.1,20.7,N/A,Snow,Light Snow,280,2013-02-28 07:35:00
2:55 AM,31.1,23.4,73,29.65,5.0,West,16.1,25.3,N/A,Snow,Light Snow,280,2013-02-28 07:55:00
3:15 AM,30.9,23.4,74,29.65,7.0,West,11.5,21.9,N/A,Snow,Light Snow,280,2013-02-28 08:15:00
3:35 AM,30.2,23.9,77,29.64,5.0,WNW,10.4,19.6,N/A,Snow,Light Snow,290,2013-02-28 08:35:00
3:55 AM,30.2,24.3,79,29.63,7.0,WNW,18.4,25.3,N/A,Snow,Light Snow,290,2013-02-28 08:55:00
4:15 AM,30.2,24.3,79,29.63,5.0,WNW,15.0,27.6,N/A,Snow,Light Snow,290,2013-02-28 09:15:00
4:35 AM,30.2,24.1,78,29.63,7.0,West,15.0,23.0,N/A,Snow,Light Snow,280,2013-02-28 09:35:00
4:55 AM,30.6,23.2,74,29.63,10.0,WNW,13.8,25.3,N/A,Snow,Light Snow,290,2013-02-28 09:55:00
5:15 AM,30.7,23.0,73,29.64,7.0,West,9.2,27.6,N/A,Snow,Light Snow,280,2013-02-28 10:15:00
5:35 AM,30.2,23.5,76,29.64,5.0,West,8.1,-,N/A,Snow,Light Snow,270,2013-02-28 10:35:00
6:15 AM,29.3,23.4,78,29.65,2.5,WNW,9.2,21.9,N/A,Snow,Light Snow,290,2013-02-28 11:15:00
6:35 AM,28.8,23.0,79,29.65,1.2,West,13.8,29.9,N/A,Snow,Light Snow,270,2013-02-28 11:35:00
6:55 AM,28.8,23.2,80,29.66,2.5,WNW,10.4,20.7,N/A,Snow,Light Snow,290,2013-02-28 11:55:00
7:15 AM,28.2,23.7,83,29.66,1.8,North,3.5,-,N/A,Snow,Light Snow,350,2013-02-28 12:15:00
7:35 AM,28.0,23.9,84,29.66,1.0,West,11.5,-,N/A,Snow,Light Snow,280,2013-02-28 12:35:00
7:55 AM,28.4,21.2,74,29.66,5.0,West,8.1,20.7,N/A,Snow,Light Snow,280,2013-02-28 12:55:00
8:15 AM,28.4,21.2,74,29.67,2.5,West,12.7,25.3,N/A,Snow,Light Snow,280,2013-02-28 13:15:00
8:35 AM,28.4,20.8,73,29.68,4.0,WNW,16.1,-,N/A,Snow,Light Snow,290,2013-02-28 13:35:00
8:55 AM,28.4,21.2,74,29.68,2.5,WNW,8.1,17.3,N/A,Snow,Light Snow,300,2013-02-28 13:55:00
9:15 AM,28.4,21.7,76,29.68,2.0,WNW,3.5,-,N/A,Snow,Light Snow,290,2013-02-28 14:15:00
9:35 AM,28.4,21.9,77,29.69,1.5,West,6.9,-,N/A,Snow,Light Snow,280,2013-02-28 14:35:00
9:55 AM,28.4,21.9,77,29.69,1.8,West,10.4,19.6,N/A,Snow,Light Snow,280,2013-02-28 14:55:00
10:15 AM,28.6,21.9,76,29.70,2.0,NW,9.2,16.1,N/A,Snow,Light Snow,310,2013-02-28 15:15:00
10:35 AM,29.3,21.9,74,29.69,1.8,West,17.3,21.9,N/A,Snow,Light Snow,280,2013-02-28 15:35:00
10:55 AM,29.1,22.5,76,29.70,1.2,West,13.8,25.3,N/A,Snow,Light Snow,280,2013-02-28 15:55:00
11:15 AM,29.1,21.9,74,29.70,2.0,WNW,16.1,24.2,N/A,Snow,Light Snow,290,2013-02-28 16:15:00
11:35 AM,29.8,20.7,69,29.71,3.0,WNW,17.3,33.4,N/A,Snow,Light Snow,300,2013-02-28 16:35:00
11:55 AM,29.8,20.3,68,29.70,5.0,WNW,19.6,29.9,N/A,Snow,Light Snow,290,2013-02-28 16:55:00
12:15 PM,29.1,20.8,71,29.70,2.5,WNW,19.6,26.5,N/A,Snow,Light Snow,290,2013-02-28 17:15:00
12:35 PM,29.3,19.9,68,29.70,7.0,West,17.3,28.8,N/A,Snow,Light Snow,280,2013-02-28 17:35:00
12:55 PM,29.8,19.8,66,29.71,10.0,WNW,18.4,29.9,N/A,,Overcast,290,2013-02-28 17:55:00
1:35 PM,29.3,19.8,68,29.70,7.0,West,21.9,32.2,N/A,,Overcast,270,2013-02-28 18:35:00
1:55 PM,30.2,20.5,67,29.70,10.0,WNW,16.1,26.5,N/A,,Overcast,290,2013-02-28 18:55:00
2:15 PM,30.7,19.6,63,29.70,10.0,WNW,19.6,28.8,N/A,,Overcast,290,2013-02-28 19:15:00
2:35 PM,30.4,19.2,63,29.71,10.0,WNW,13.8,25.3,N/A,,Overcast,290,2013-02-28 19:35:00
2:55 PM,30.4,19.6,64,29.72,10.0,WNW,12.7,17.3,N/A,,Overcast,290,2013-02-28 19:55:00
3:15 PM,30.2,19.2,64,29.72,10.0,West,10.4,18.4,N/A,,Overcast,270,2013-02-28 20:15:00
3:35 PM,30.2,19.4,64,29.72,10.0,West,5.8,-,N/A,,Overcast,280,2013-02-28 20:35:00
3:55 PM,30.2,19.4,64,29.73,10.0,West,8.1,-,N/A,,Overcast,280,2013-02-28 20:55:00
4:15 PM,30.6,19.8,64,29.73,10.0,West,3.5,-,N/A,,Overcast,270,2013-02-28 21:15:00
4:35 PM,30.4,20.1,66,29.73,10.0,West,17.3,25.3,N/A,,Overcast,280,2013-02-28 21:35:00
4:55 PM,30.2,20.3,67,29.74,10.0,West,12.7,20.7,N/A,,Overcast,270,2013-02-28 21:55:00
5:15 PM,30.2,21.0,69,29.75,10.0,West,12.7,23.0,N/A,,Overcast,280,2013-02-28 22:15:00
5:35 PM,29.5,20.8,70,29.75,10.0,West,16.1,24.2,N/A,,Overcast,280,2013-02-28 22:35:00
5:55 PM,29.3,21.2,72,29.76,10.0,WNW,16.1,24.2,N/A,,Overcast,300,2013-02-28 22:55:00
6:15 PM,29.1,21.6,73,29.77,10.0,West,19.6,26.5,N/A,,Overcast,280,2013-02-28 23:15:00
6:35 PM,28.9,21.6,74,29.77,10.0,West,15.0,25.3,N/A,,Overcast,280,2013-02-28 23:35:00
6:55 PM,28.6,21.6,75,29.78,10.0,WNW,15.0,23.0,N/A,,Overcast,290,2013-02-28 23:55:00
7:15 PM,28.4,21.7,76,29.77,10.0,WNW,15.0,21.9,N/A,,Overcast,290,2013-03-01 00:15:00
7:35 PM,28.0,21.7,77,29.77,10.0,West,21.9,31.1,N/A,,Overcast,270,2013-03-01 00:35:00
7:55 PM,27.9,21.9,78,29.78,10.0,WNW,17.3,27.6,N/A,,Overcast,290,2013-03-01 00:55:00
8:15 PM,27.5,21.7,79,29.77,10.0,West,16.1,26.5,N/A,,Overcast,280,2013-03-01 01:15:00
8:35 PM,27.5,21.9,80,29.77,10.0,WNW,10.4,21.9,N/A,,Overcast,290,2013-03-01 01:35:00
8:55 PM,27.5,22.1,80,29.77,10.0,WNW,11.5,25.3,N/A,,Overcast,300,2013-03-01 01:55:00
9:15 PM,27.5,22.1,80,29.77,10.0,NW,15.0,24.2,N/A,,Overcast,320,2013-03-01 02:15:00
9:35 PM,27.3,22.1,81,29.77,10.0,NW,13.8,27.6,N/A,,Overcast,310,2013-03-01 02:35:00
9:55 PM,27.1,22.5,83,29.77,7.0,WNW,19.6,26.5,N/A,,Overcast,290,2013-03-01 02:55:00
10:15 PM,27.3,22.6,83,29.78,7.0,WNW,3.5,24.2,N/A,,Overcast,290,2013-03-01 03:15:00
10:35 PM,27.1,22.8,84,29.78,7.0,NW,8.1,-,N/A,,Overcast,320,2013-03-01 03:35:00
10:55 PM,27.3,22.6,83,29.78,7.0,NW,10.4,27.6,N/A,,Overcast,310,2013-03-01 03:55:00
11:15 PM,27.3,22.6,83,29.78,7.0,WNW,13.8,27.6,N/A,,Overcast,300,2013-03-01 04:15:00
11:35 PM,27.5,22.5,81,29.77,7.0,WNW,15.0,27.6,N/A,,Overcast,290,2013-03-01 04:35:00
11:55 PM,27.5,22.5,81,29.77,10.0,WNW,11.5,18.4,N/A,,Overcast,290,2013-03-01 04:55:00